Stündliche Wetter Warszewice

Heute, 21 Oktober, Mittwoch

Zeit Temperatur Niederschläge Wind Luftdruck Luftfeuchtigkeit
00:00 +8°C° 0 mm 7 m/S 747 mmHg 65%
01:00 +9°C° 0 mm 7 m/S 746 mmHg 64%
02:00 +9°C° 0 mm 7 m/S 746 mmHg 65%
03:00 +9°C° 0 mm 6 m/S 746 mmHg 66%
04:00 +9°C° 0 mm 6 m/S 745 mmHg 67%
05:00 +9°C° 0 mm 6 m/S 745 mmHg 66%
06:00 +9°C° 0 mm 6 m/S 745 mmHg 66%
07:00 +9°C° 0 mm 5 m/S 745 mmHg 65%
08:00 +10°C° 0 mm 5 m/S 745 mmHg 64%
09:00 +10°C° 0 mm 5 m/S 745 mmHg 63%
10:00 +10°C° 0 mm 5 m/S 745 mmHg 62%
11:00 +12°C° 0 mm 5 m/S 745 mmHg 62%
12:00 +11°C° 0 mm 6 m/S 745 mmHg 61%
13:00 +13°C° 0 mm 5 m/S 745 mmHg 65%
14:00 +13°C° 0 mm 5 m/S 744 mmHg 66%
15:00 +13°C° 0 mm 4 m/S 744 mmHg 68%
16:00 +12°C° 0 mm 4 m/S 744 mmHg 69%
17:00 +12°C° 0 mm 4 m/S 744 mmHg 70%
18:00 +12°C° 0 mm 5 m/S 744 mmHg 72%
19:00 +12°C° 0 mm 5 m/S 744 mmHg 73%
20:00 +10°C° 0 mm 5 m/S 744 mmHg 73%
21:00 +10°C° 0 mm 5 m/S 744 mmHg 72%
22:00 +10°C° 0 mm 5 m/S 744 mmHg 72%
23:00 +10°C° 0 mm 5 m/S 744 mmHg 72%

Morgen, 22 Oktober, Donnerstag

Zeit Temperatur Niederschläge Wind Luftdruck Luftfeuchtigkeit
00:00 +10°C° 0 mm 5 m/S 744 mmHg 72%
01:00 +10°C° 0 mm 5 m/S 745 mmHg 73%
02:00 +10°C° 0 mm 6 m/S 744 mmHg 73%
03:00 +10°C° 0 mm 6 m/S 744 mmHg 72%
04:00 +10°C° 0 mm 6 m/S 744 mmHg 72%
05:00 +10°C° 0 mm 6 m/S 744 mmHg 72%
06:00 +10°C° 0 mm 6 m/S 745 mmHg 72%
07:00 +10°C° 0 mm 6 m/S 745 mmHg 72%
08:00 +13°C° 0 mm 6 m/S 745 mmHg 68%
09:00 +14°C° 0 mm 6 m/S 745 mmHg 63%
10:00 +16°C° 0 mm 7 m/S 746 mmHg 59%
11:00 +17°C° 0 mm 6 m/S 746 mmHg 58%
12:00 +19°C° 0 mm 6 m/S 746 mmHg 57%
13:00 +20°C° 0 mm 5 m/S 746 mmHg 57%
14:00 +19°C° 0 mm 5 m/S 746 mmHg 61%
15:00 +18°C° 0 mm 4 m/S 746 mmHg 65%
16:00 +17°C° 0 mm 3 m/S 746 mmHg 70%
17:00 +16°C° 0 mm 3 m/S 746 mmHg 72%
18:00 +16°C° 0 mm 3 m/S 746 mmHg 74%
19:00 +14°C° 0 mm 4 m/S 746 mmHg 76%
20:00 +14°C° 0 mm 4 m/S 746 mmHg 76%
21:00 +14°C° 0 mm 4 m/S 746 mmHg 77%
22:00 +13°C° 0 mm 4 m/S 746 mmHg 77%
23:00 +13°C° 0 mm 4 m/S 746 mmHg 77%

übermorgen, 23 Oktober, Freitag

Zeit Temperatur Niederschläge Wind Luftdruck Luftfeuchtigkeit
00:00 +13°C° 0 mm 4 m/S 746 mmHg 77%
01:00 +13°C° 0 mm 4 m/S 746 mmHg 77%
02:00 +13°C° 0 mm 4 m/S 745 mmHg 77%
03:00 +13°C° 0 mm 4 m/S 745 mmHg 78%
04:00 +13°C° 0 mm 4 m/S 745 mmHg 79%
05:00 +13°C° 0 mm 4 m/S 745 mmHg 79%
06:00 +12°C° 0 mm 4 m/S 744 mmHg 79%
07:00 +12°C° 0 mm 4 m/S 744 mmHg 79%
08:00 +13°C° 0 mm 4 m/S 744 mmHg 76%
09:00 +14°C° 0 mm 5 m/S 744 mmHg 73%
10:00 +14°C° 0 mm 5 m/S 744 mmHg 70%
11:00 +15°C° 0 mm 5 m/S 743 mmHg 69%
12:00 +17°C° 0 mm 4 m/S 743 mmHg 67%
13:00 +17°C° 0 mm 4 m/S 743 mmHg 66%
14:00 +17°C° 0 mm 3 m/S 743 mmHg 70%
15:00 +16°C° 0 mm 3 m/S 743 mmHg 73%
16:00 +16°C° 0 mm 2 m/S 743 mmHg 77%
17:00 +15°C° 0 mm 2 m/S 743 mmHg 79%
18:00 +15°C° 0 mm 2 m/S 743 mmHg 80%
19:00 +15°C° 0 mm 1 m/S 743 mmHg 82%
20:00 +15°C° 0.3 mm 2 m/S 743 mmHg 85%
21:00 +14°C° 0.3 mm 2 m/S 743 mmHg 88%
22:00 +14°C° 0.3 mm 2 m/S 743 mmHg 91%
23:00 +14°C° 0.5 mm 2 m/S 743 mmHg 93%

24 Oktober, Samstag

Zeit Temperatur Niederschläge Wind Luftdruck Luftfeuchtigkeit
00:00 +14°C° 0.5 mm 2 m/S 743 mmHg 94%
01:00 +13°C° 0.5 mm 3 m/S 743 mmHg 95%
02:00 +13°C° 1.5 mm 3 m/S 742 mmHg 95%
03:00 +13°C° 1.5 mm 3 m/S 742 mmHg 95%
04:00 +13°C° 1.5 mm 3 m/S 742 mmHg 95%
05:00 +13°C° 0.2 mm 3 m/S 742 mmHg 95%
06:00 +13°C° 0.2 mm 3 m/S 742 mmHg 95%
07:00 +13°C° 0.2 mm 3 m/S 742 mmHg 95%
08:00 +13°C° 0.2 mm 4 m/S 743 mmHg 92%
09:00 +13°C° 0.2 mm 5 m/S 743 mmHg 89%
10:00 +14°C° 0.2 mm 6 m/S 743 mmHg 86%
11:00 +14°C° 0.1 mm 6 m/S 743 mmHg 81%
12:00 +15°C° 0.1 mm 6 m/S 743 mmHg 76%
13:00 +15°C° 0.1 mm 6 m/S 744 mmHg 71%
14:00 +15°C° 0.2 mm 6 m/S 744 mmHg 72%
15:00 +14°C° 0.2 mm 6 m/S 744 mmHg 74%
16:00 +12°C° 0.2 mm 7 m/S 745 mmHg 76%
17:00 +11°C° 0 mm 6 m/S 745 mmHg 77%
18:00 +10°C° 0 mm 5 m/S 746 mmHg 79%
19:00 +10°C° 0 mm 4 m/S 746 mmHg 80%
20:00 +10°C° 0 mm 4 m/S 747 mmHg 81%
21:00 +10°C° 0 mm 4 m/S 747 mmHg 81%
22:00 +8°C° 0 mm 4 m/S 747 mmHg 82%
23:00 +8°C° 0 mm 4 m/S 748 mmHg 83%

25 Oktober, Sonntag

Zeit Temperatur Niederschläge Wind Luftdruck Luftfeuchtigkeit
00:00 +8°C° 0 mm 3 m/S 748 mmHg 85%
01:00 +8°C° 0 mm 3 m/S 748 mmHg 87%
02:00 +7°C° 0 mm 3 m/S 748 mmHg 87%
03:00 +7°C° 0 mm 2 m/S 748 mmHg 88%
04:00 +7°C° 0 mm 2 m/S 748 mmHg 89%
05:00 +7°C° 0 mm 2 m/S 748 mmHg 88%
06:00 +7°C° 0 mm 2 m/S 748 mmHg 88%
07:00 +6°C° 0 mm 2 m/S 748 mmHg 87%
08:00 +8°C° 0 mm 2 m/S 748 mmHg 81%
09:00 +10°C° 0 mm 2 m/S 748 mmHg 74%
10:00 +11°C° 0 mm 3 m/S 748 mmHg 68%
11:00 +12°C° 0 mm 3 m/S 748 mmHg 65%
12:00 +13°C° 0 mm 3 m/S 748 mmHg 62%
13:00 +14°C° 0 mm 3 m/S 747 mmHg 59%
14:00 +13°C° 0 mm 3 m/S 747 mmHg 62%
15:00 +14°C° 0 mm 2 m/S 747 mmHg 66%
16:00 +13°C° 0 mm 2 m/S 746 mmHg 69%
17:00 +11°C° 0 mm 3 m/S 747 mmHg 72%
18:00 +11°C° 0 mm 3 m/S 747 mmHg 75%
19:00 +10°C° 0 mm 4 m/S 747 mmHg 78%
20:00 +8°C° 0 mm 4 m/S 747 mmHg 79%
21:00 +8°C° 0 mm 4 m/S 747 mmHg 80%
22:00 +9°C° 0 mm 3 m/S 747 mmHg 81%
23:00 +8°C° 0 mm 3 m/S 746 mmHg 80%

26 Oktober, Montag

Zeit Temperatur Niederschläge Wind Luftdruck Luftfeuchtigkeit
00:00 +8°C° 0 mm 3 m/S 746 mmHg 80%
01:00 +8°C° 0 mm 3 m/S 746 mmHg 80%
02:00 +8°C° 0 mm 3 m/S 746 mmHg 81%
03:00 +7°C° 0 mm 3 m/S 746 mmHg 82%
04:00 +7°C° 0 mm 3 m/S 746 mmHg 84%
05:00 +7°C° 0 mm 3 m/S 745 mmHg 85%
06:00 +7°C° 0 mm 3 m/S 745 mmHg 86%
07:00 +6°C° 0 mm 4 m/S 745 mmHg 87%
08:00 +7°C° 0 mm 4 m/S 745 mmHg 83%
09:00 +8°C° 0 mm 4 m/S 745 mmHg 79%
10:00 +11°C° 0 mm 4 m/S 745 mmHg 75%
11:00 +12°C° 0 mm 4 m/S 745 mmHg 72%
12:00 +13°C° 0 mm 4 m/S 745 mmHg 69%
13:00 +14°C° 0 mm 4 m/S 744 mmHg 66%
14:00 +13°C° 0 mm 4 m/S 744 mmHg 70%
15:00 +13°C° 0 mm 4 m/S 744 mmHg 73%
16:00 +12°C° 0 mm 3 m/S 744 mmHg 76%
17:00 +12°C° 0 mm 3 m/S 744 mmHg 79%
18:00 +11°C° 0 mm 4 m/S 744 mmHg 82%
19:00 +11°C° 0 mm 4 m/S 744 mmHg 85%
20:00 +10°C° 0 mm 4 m/S 744 mmHg 86%
21:00 +10°C° 0 mm 3 m/S 745 mmHg 88%
22:00 +9°C° 0 mm 3 m/S 745 mmHg 90%
23:00 +9°C° 0 mm 3 m/S 745 mmHg 91%

27 Oktober, Dienstag

Zeit Temperatur Niederschläge Wind Luftdruck Luftfeuchtigkeit
00:00 +9°C° 0 mm 3 m/S 745 mmHg 92%
01:00 +9°C° 0 mm 2 m/S 745 mmHg 92%
02:00 +8°C° 0 mm 2 m/S 745 mmHg 93%
03:00 +8°C° 0 mm 2 m/S 745 mmHg 93%
04:00 +8°C° 0 mm 2 m/S 745 mmHg 93%
05:00 +8°C° 0 mm 2 m/S 745 mmHg 93%
06:00 +8°C° 0 mm 2 m/S 745 mmHg 93%
07:00 +8°C° 0 mm 2 m/S 745 mmHg 93%
08:00 +9°C° 0 mm 2 m/S 745 mmHg 88%
09:00 +10°C° 0 mm 2 m/S 745 mmHg 82%
10:00 +12°C° 0 mm 2 m/S 745 mmHg 77%
11:00 +13°C° 0 mm 2 m/S 745 mmHg 74%
12:00 +14°C° 0 mm 2 m/S 745 mmHg 72%
13:00 +15°C° 0 mm 2 m/S 746 mmHg 69%
14:00 +14°C° 0 mm 2 m/S 746 mmHg 72%
15:00 +14°C° 0 mm 1 m/S 746 mmHg 76%
16:00 +13°C° 0 mm 1 m/S 746 mmHg 79%
17:00 +13°C° 0 mm 1 m/S 746 mmHg 81%
18:00 +12°C° 0 mm 1 m/S 746 mmHg 83%
19:00 +12°C° 0 mm 1 m/S 746 mmHg 85%
20:00 +10°C° 0 mm 2 m/S 747 mmHg 86%
21:00 +10°C° 0 mm 2 m/S 747 mmHg 87%
22:00 +10°C° 0 mm 2 m/S 747 mmHg 88%
23:00 +10°C° 0 mm 2 m/S 748 mmHg 89%
Mehr zeigen

Wir brauchen deine Erlaubnis

Meteoprog und unser Service Anbieter werden persönliche Daten aufbewahren, so wie Cookies, Geräte Bezeichnung oder ähnliche Technologien von deinem Gerät und Prozess, so wie Persönliche Daten Inhalte und Werbungen, genauso wie social Media und den Verkehr zu analysieren.

  • Aufbewahrung und/oder Zugang zu deiner Geräte Informationen.

    Cookies, Geräte Bezeichnung oder andere Informationen, können aufbewahrt oder Zugang zu deinem Gerät erhalten, für den Grund, der oben angegeben wird.

  • Personalisierte Werbung und Inhalte, Messungen, Einblick in das Publikum und Produkt Entwicklung.

    Werbungen und Inhalte können personalisiert werden, basierend auf ein Profil. Mehr Daten können besser personalisierte Werbungen und Inhalte hinzufügen. Werbung und Inhalte können gezeigt und gemessen werden. Einblicke über das Publikum, welche die Werbung gesehen haben und den Inhalt, können abgeleitet werden. So wie Daten können genutzt werden, um es zu verbessern oder die Benutzer Erfahrung zu verbessern das System und die Software.

Wenn du “Ich stimme zu” klickst, erlaubst du uns, die Cookies zu benutzen die Geräte Bezeichnung, den Web oder ähnliche Technologien zu benutzen. Deine Settings, können in deinem Gerät bei deinem Browser geändert werden.

Für den bestimmten Zweck, berechtigten Interessen beruhen darauf, mehr als auf den Inhalt. Du kannst mehr darüber in unseren Privaten und Cookie Politik lesen.